Regional Weather Roundup
Issued by NWS Northern Indiana

Home | Current Version | Previous Version | Text Only | Print | Product List | Glossary Off
Versions: 1 2 3 4 5 6 7 8 9 10 11 12 13 14 15 16 17 18 19 20 21 22 23 24 25 26 27 28 29 30 31 32 33 34 35 36 37 38 39 40 41 42 43 44 45 46 47 48 49 50

000
ASUS43 KIWX 231200
RWRIWX

KIWX WEATHER ROUNDUP
NATIONAL WEATHER SERVICE NORTHERN INDIANA
800 AM EDT WED JUL 23 2014

NOTE: "FAIR" INDICATES FEW OR NO CLOUDS BELOW 12,000 FEET WITH NO
SIGNIFICANT WEATHER AND/OR OBSTRUCTIONS TO VISIBILITY.

* THESE STATIONS ARE NOT UNDER NWS QUALITY CONTROL. THEY ALSO MAY NOT
  REPORT WEATHER SUCH AS PRECIPITATION OR FOG.

INZ001>027-231300-
NORTHERN INDIANA

CITY           SKY/WX    TMP DP  RH WIND       PRES   REMARKS
GARY*          MOSUNNY   64  59  82 N17G29    30.10R
VALPARAISO     PTSUNNY   63  60  90 N10G23    30.06R
6HR MIN TEMP:  63; 6HR MAX TEMP:  77; 6HR PCP:  0.30;

SOUTH BEND     CLOUDY    64  58  80 N21       30.05R
6HR MIN TEMP:  64; 6HR MAX TEMP:  73; 6HR PCP:  0.22;

GOSHEN         CLOUDY    70  68  93 N9        30.02R FOG
6HR MIN TEMP:  69; 6HR MAX TEMP:  71; 6HR PCP:  0.14;

WARSAW*        CLOUDY    68  68 100 N7        30.02R FOG
ANGOLA*        CLOUDY    68  59  73 N5        30.01S
FORT WAYNE     CLOUDY    69  67  93 CALM      30.01R
6HR MIN TEMP:  69; 6HR MAX TEMP:  78; 6HR PCP:  0.18;


$$
INZ028>050-231300-
CENTRAL INDIANA

CITY           SKY/WX    TMP DP  RH WIND       PRES   REMARKS
LAFAYETTE      CLOUDY    71  69  93 N9        30.03R FOG
6HR MIN TEMP:  70; 6HR MAX TEMP:  73; 6HR PCP:  0.09;

KOKOMO*        CLOUDY    70  66  88 W9        30.04R
6HR MIN TEMP:  68; 6HR MAX TEMP:  75; 6HR PCP:  0.26;

MUNCIE*        LGT RAIN  71  66  84 W7        30.02R
6HR MIN TEMP:  71; 6HR MAX TEMP:  75; 6HR PCP:  0.02;

INDIANAPOLIS   PTSUNNY   72  68  87 S16       29.98F
6HR MIN TEMP:  72; 6HR MAX TEMP:  75; 6HR PCP:  0.03;


$$
MIZ043>046-050>051-056>058-064>065-071>073-077>080-231300-
SOUTHWEST LOWER MICHIGAN

CITY           SKY/WX    TMP DP  RH WIND       PRES   REMARKS
BATTLE CREEK   CLOUDY    64  57  78 N13       30.06S
6HR MIN TEMP:  64; 6HR MAX TEMP:  73; 6HR PCP:  0.02;

BENTON HARBOR  PTSUNNY   63  58  83 NE8G17    30.06S
6HR MIN TEMP:  63; 6HR MAX TEMP:  70; 6HR PCP: TRACE;

COLDWATER*     CLOUDY    70  67  92 N13       30.02F
6HR MIN TEMP:  69; 6HR MAX TEMP:  76;

HILLSDALE*     CLOUDY    69  69  98 N9        30.01F
6HR MIN TEMP:  69; 6HR MAX TEMP:  78;

HOLLAND        PTSUNNY   62  57  83 N7        30.09R
6HR MIN TEMP:  62; 6HR MAX TEMP:  71;

GRAND RAPIDS   PTSUNNY   64  57  78 N12       30.09R
6HR MIN TEMP:  63; 6HR MAX TEMP:  71;

KALAMAZOO      CLOUDY    64  59  83 N10       30.06R
6HR MIN TEMP:  64; 6HR MAX TEMP:  70; 6HR PCP:  0.02;

STURGIS*       CLOUDY    68  66  94 N8        30.02S
THREE RIVERS*  CLOUDY    65  64  97 N7        30.04S

$$
OHZ001>008-015>018-024>025-231300-
NORTHWEST OHIO

CITY           SKY/WX    TMP DP  RH WIND       PRES   REMARKS
DEFIANCE       CLOUDY    71  65  81 CALM      29.99F
6HR MIN TEMP:  70; 6HR MAX TEMP:  76; 6HR PCP:  0.62;

FINDLAY        CLOUDY    71  68  90 S6        29.98F
6HR MIN TEMP:  71; 6HR MAX TEMP:  77; 6HR PCP:  0.25;

TOLEDO EXPRESS CLOUDY    70  66  87 NW7       29.98S
6HR MIN TEMP:  70; 6HR MAX TEMP:  76; 6HR PCP:  0.52;

TOLEDO METCALF CLOUDY    73  66  78 W12       29.98F
6HR MIN TEMP:  72; 6HR MAX TEMP:  78; 6HR PCP:  0.57;

LIMA           CLOUDY    71  67  87 SE10      29.99F
6HR MIN TEMP:  70; 6HR MAX TEMP:  77; 6HR PCP:  0.41;


$$
&&



USA.gov is the U.S. government's official web portal to all federal, state and local government web resources and services.